User: anonymous   Login
Location: Trois-Rivi�res
(46.3500°N, 72.5500°W)
Time: 20:05:55
(UTC-04:00)
Language:

Cosmos 1975 - Orbit

View from above orbital plane
View from above orbital plane
View from above satellite
View from above satellite

Ground track
Ground track

The orbit data is extracted from the following two-line orbital elements,

1 19573U 88093A   15187.81052665  .00001888  00000-0  13895-3 0  9992
2 19573 082.5221 313.1195 0014453 193.3346 166.7500 15.02756068452912
Epoch (UTC): 06 July 2015 19:27:09
Eccentricity: 0.0014453
inclination: 82.5221°
perigee height: 548 km
apogee height: 568 km
right ascension of ascending node: 313.1195°
argument of perigee: 193.3346°
revolutions per day: 15.02756068
mean anomaly at epoch: 166.7500°
orbit number at epoch: 45291

The dashed part of the orbit path shows where the satellite is in the earth's shadow,  

DLR